Location: F?ge?el
(45.8833°N, 22.5833°E)
Time: 13:03:41
(UTC+00:00)

Cosmos 1400 Rocket - Pass Details

Date: 17 November 2025
Orbit: 477 x 514 km, 81.1° (Epoch: 06 December)

Event Time Altitude Azimuth Distance (km) Brightness Sun altitude
Rises 17:24:30 0° 208° (SSW) 2,619 6.7 -25.6°
Reaches altitude 10° 17:26:44 10° 217° (SW) 1,734 5.8 -26.0°
Maximum altitude 17:30:18 38° 286° (WNW) 801 4.1 -26.7°
Enters shadow 17:30:45 36° 303° (WNW) 824 4.0 -26.7°
